Regional Weather Roundup
Issued by NWS Grand Forks, ND

Home | Current Version | Previous Version | Graphics & Text | Print | Product List | Glossary On
Versions: 1 2 3 4 5 6 7 8 9 10 11 12 13 14 15 16 17 18 19 20 21 22 23 24 25 26 27 28 29 30 31 32 33 34 35 36 37 38 39 40 41 42 43 44 45 46 47 48 49 50
000
ASUS43 KFGF 282210
RWRFGF
PRAIRIE TO PINES  WEATHER ROUNDUP
NATIONAL WEATHER SERVICE EASTERN NORTH DAKOTA/GRAND FORKS ND
500 PM CDT THU JUL 28 2016

 **SATELLITE DATA USED TO AUGMENT SKY COVER AT AUTOMATED STATIONS**
 *****  WEATHER ACROSS EASTERN NORTH DAKOTA  *****

CITY           SKY/WX    TMP DP  RH WIND       PRES   REMARKS
GRAND FORKS    MOSUNNY   77  56  48 N12       30.09F
GRAND FRKS AFB MOSUNNY   75  57  52 N6        30.11
GRAND FRKS NWS   N/A     75 N/A N/A N3          N/A
DEVILS LAKE    MOSUNNY   71  57  61 NW6       30.13F
FARGO          MOSUNNY   80  61  52 N9        30.05F
WAHPETON ARPT  CLOUDY    73  55  53 NW6       30.06S
$$

 ***** WEATHER ACROSS CENTRAL AND WESTERN NORTH DAKOTA  *****

CITY           SKY/WX    TMP DP  RH WIND       PRES   REMARKS
BISMARCK       CLOUDY    74  56  53 N6        30.11F
MINOT          SUNNY     78  51  38 NE8       30.12F
JAMESTOWN      MOSUNNY   74  61  63 E7        30.07F
MINOT AFB      NOT AVBL
GARRISON         N/A     73  55  53 VRB5      30.13F
WILLISTON      MOSUNNY   78  50  37 VRB3      30.13F
DICKINSON      CLOUDY    65  57  75 E7        30.14S
HETTINGER      PTSUNNY   71  59  65 E14       30.14S
$$

 *****  OTHER AIRPORT OBSERVATIONS IN OUR AREA  *****

CITY           SKY/WX    TMP DP  RH WIND       PRES   REMARKS
WALHALLA       NOT AVBL
GRAFTON AIRPOR FAIR      73  55  53 N8G15     30.13S
VALLEY CITY AR MOCLDY    75  63  64 NE8       30.10F
CANDO          NOT AVBL
CAVALIER APRT  FAIR      73  55  53 N7        30.12F
GWINNER        NOT AVBL
SHEYENNE NWR     N/A     80  61  51 NE6       29.95S
ROLLA            N/A     68  52  56 NE3       30.16F
 ***** THE ABOVE OBSERVATIONS ARE NON NWS ARE NOT QUALITY
       CONTROLLED AND MAY MIS-REPORT RAIN FOR SNOW...
$$

  *****  WEATHER ACROSS NORTHERN MINNESOTA  *****

CITY           SKY/WX    TMP DP  RH WIND       PRES   REMARKS
FLAG ISLAND    SUNNY     72  52  49 CALM      30.10F
WARROAD        SUNNY     72  57  60 E5        30.12S
ROSEAU         SUNNY     73  55  53 CALM      30.11S
HALLOCK        SUNNY     73  54  49 N7        30.10F
THF RVR FALLS  NOT AVBL
BAUDETTE       SUNNY     75  57  53 N8G17     30.10S
WASKISH        SUNNY     77  55  47 W7        30.08F
CROOKSTON      SUNNY     75  57  53 N10G16    30.10S
STEPHEN NDAWN    N/A     75  55  50 N6          N/A
GREENBUSH NDAW   N/A     75  55  50 N5          N/A
$$
  *****  WEATHER ACROSS CENTRAL AND WEST MINNESOTA  *****

CITY           SKY/WX    TMP DP  RH WIND       PRES   REMARKS
FOSSTON        SUNNY     77  59  53 N7        30.09F
BEMIDJI        MOSUNNY   75  55  50 N8G16     30.08F
PARK RAPIDS    SUNNY     79  52  38 VRB5      30.06F
ELBOW LAKE     MOCLDY    76  60  57 CALM      30.06F
WADENA         MOSUNNY   75  59  57 E8        30.06S
DETROIT LAKES  MOSUNNY   77  59  53 N6        30.08S
MOORHEAD       MOSUNNY   79  61  53 N9        30.06F
FERGUS FALLS   PTSUNNY   75  63  64 N5        30.07S
MORRIS MN      MOSUNNY   79  57  47 NW5       30.06F
STAPLES        CLOUDY    75  55  50 CALM      30.06F
$$
  *****  WEATHER ELSEWHERE ACROSS MINNESOTA  *****

CITY           SKY/WX    TMP DP  RH WIND       PRES   REMARKS
DULUTH         CLOUDY    69  50  50 E16       30.08F
INTRNTL FALLS  SUNNY     76  53  44 NE8       30.08F
ELY            SUNNY     75  46  35 CALM      30.07F
CLOQUET        CLOUDY    70  52  52 E14       30.08S
WHEATON        SUNNY     81  63  54 NE3       30.07F
BRAINERD       CLOUDY    75  57  53 CALM      30.06F
HIBBING        MOSUNNY   74  55  51 N6        30.06F
ALEXANDRIA     PTSUNNY   75  57  53 E6        30.08S
SAINT CLOUD    PTSUNNY   75  56  51 NE9G17    30.04F
MINNEAPOLIS    CLOUDY    76  57  51 NE14      30.01F
$$

  *****  WEATHER ACROSS SOUTH DAKOTA  *****

CITY           SKY/WX    TMP DP  RH WIND       PRES   REMARKS
SIOUX FALLS    PTSUNNY   76  60  57 NE10      30.02S
BROOKINGS      MOSUNNY   74  60  61 NE12      30.05F
WATERTOWN      SUNNY     78  55  44 E14       30.07F
HURON          CLOUDY    80  60  50 NE12      30.02F
SISSETON         N/A     78  60  53 NE5       30.05F
ABERDEEN       CLOUDY    78  60  53 E5        30.06F
MITCHELL       PTSUNNY   80  62  54 NE9       30.03S
PIERRE         CLOUDY    74  60  61 W13       30.05R
MOBRIDGE       PTSUNNY   80  56  43 NE9       30.07F
RAPID CITY     CLOUDY    75  57  53 NE13      30.12F
$$

  *****  SOME WEATHER IN NEARBY STATES *****

CITY           SKY/WX    TMP DP  RH WIND       PRES   REMARKS
GLASGOW MT     PTSUNNY   76  55  48 E6        30.12F
GREAT FALLS MT SUNNY     84  44  24 CALM      30.12F
CHEYENNE WY    MOSUNNY   75  54  47 VRB5      30.24F
SCOTTSBLUFF NE SUNNY     79  55  43 NW5       30.14F
OMAHA NE       MOSUNNY   84  62  47 N14       29.96F
DES MOINES IA  PTSUNNY   80  62  54 N13       29.95F
DAVENPORT IA   MOSUNNY   82  68  62 W8        29.89S
CHICAGO IL     TSTM      73  70  90 NW6       29.90F
EAU CLAIRE WI  CLOUDY    68  60  75 E5        30.00R
LA CROSSE WI   CLOUDY    67  63  87 N8        29.96S
$$

  *****  SOME NATIONAL WEATHER *****

CITY           SKY/WX    TMP DP  RH WIND       PRES   REMARKS
LA GUARDIA NY  CLOUDY    86  71  60 SW16      29.86R HX  91
RALEIGH NC     MOSUNNY   95  72  47 W10G21    29.83S HX 103
ATLANTA GA     CLOUDY    86  71  60 SW17G23   29.99S HX  91
NEW ORLEANS LA PTSUNNY   94  74  52 S14       29.97F HX 104
OKLAHOMA CITY  MOSUNNY   93  68  43 S7        29.92F HX  97
ALBUQUERQUE NM CLOUDY    97  38  13 VRB5      30.12F HX  92
SALT LAKE CITY MOSUNNY  101  36  10 N12       30.04F HX  95
LOS ANGELES CA MOSUNNY   76  64  66 W13       29.86F
BOISE ID       SUNNY     98  39  13 NW12G18   30.00F HX  93
SEATTLE WA     SUNNY     85  59  41 N15G21    30.09F
$$

*** WEATHER ACROSS MANITOBA...SASKATCHEWAN AND ONTARIO ***
                ***ONTARIO***

CITY           SKY/WX    TMP DP  RH WIND       PRES   REMARKS
GERALDTON      MOSUNNY   68  52  56 NW5       30.08F
THUNDER BAY    MOSUNNY   75  55  50 SE6       30.06F
SIOUX LOOKOUT  MOSUNNY   72  43  35 VRB3      30.11F
TORONTO        CLOUDY    82  61  47 SE8       29.87S
BIG TROUT LK   SUNNY     73  52  46 SW6       30.07S
PICKLE LAKE    MOSUNNY   72  45  37 VRB2      30.10F
DRYDEN         SUNNY     73  48  40 NE5       30.11S
KENORA         MOSUNNY   73  50  43 N6        30.11F
$$
                *** MANITOBA***

CITY           SKY/WX    TMP DP  RH WIND       PRES   REMARKS
BRANDON        MOSUNNY   75  55  50 NW3       30.13F
DAUPHIN        SUNNY     81  57  44 S6        30.09F
ISLAND LAKE    PTSUNNY   75  52  43 NW5       30.05F
PILOT MOUND      N/A     72  52  49 NE5         N/A
THE PAS        MOSUNNY   81  59  47 W6        30.02S THUNDER
THOMPSON       PTSUNNY   70  61  73 S5        30.00F
WINNIPEG       MOSUNNY   73  50  43 NW3       30.11F
LYNN LAKE      CLOUDY    75  55  50 MISG      30.02F
GILLAM         PTSUNNY   72  63  73 N5        30.02R THUNDER
$$
                ***SASKATCHEWAN***

CITY           SKY/WX    TMP DP  RH WIND       PRES   REMARKS
ESTEVAN        PTSUNNY   75  50  41 E7        30.13F
KINDERSLEY     PTSUNNY   77  61  57 S6        30.09F
LLOYDMINSTER   CLOUDY    77  61  57 W8        30.06F
PRINCE ALBERT  TSTM      68  63  83 NE9G18    30.07R
REGINA         PTSUNNY   75  50  41 SE7       30.12F
YORKTON        SUNNY     77  54  44 W7        30.12F
N. BATTLEFORD  NOT AVBL
LA RONGE       PTSUNNY   79  52  38 S7        30.02R
SASKATOON      PTSUNNY   82  54  36 SW13      30.08F
SWIFT CURRENT  SUNNY     77  54  44 S5        30.11F
$$
NOTE: THESE ARE AUTOMATED STATIONS WITH LIMITED QUALITY CONTROL
      "FAIR" INDICATES FEW OR NO CLOUDS BELOW 12,000 FEET WITH NO
      SIGNIFICANT WEATHER AND/OR OBSTRUCTIONS TO VISIBILITY.
      SKY/WX - SKY CONDITION AND SIGNIFICANT WEATHER.
      TMP - AIR TEMPERATURE.    DP   - DEWPOINT TEMPERATURE.
      RH  - RELATIVE HUMIDITY.  PRES - PRESSURE.
      HX  - HEAT INDEX.         WCI  - WIND CHILL INDEX.
$




USA.gov is the U.S. government's official web portal to all federal, state and local government web resources and services.